NKS890 KMIA-KEWR

Flight info

Callsign NKS890
Flight time 2h 16m
Altitude 34000
Route FOLZZ3 ALYRA GRUBR/N0452F350 Y299 SEELO GARIC Q129 AARNN QUART PHLBO4
Aircraft A321/M-SDE3FGHIRWY/LB1

Departure

Time 2026-05-04 02:36
Airport Miami International Airport (KMIA)

Arrival

Time 2026-05-04 04:52
Airport Newark Liberty International Airport (KEWR)
Time Latitude Longitude Altitude Speed Heading
2026-05-04 02:07 25.79209 -80.28072 22 ft 0 kts 297°
2026-05-04 02:23 25.79208 -80.28070 22 ft 2 kts 297°
2026-05-04 02:23 25.79196 -80.28044 24 ft 3 kts 297°
2026-05-04 02:23 25.79189 -80.28020 24 ft 4 kts 246°
2026-05-04 02:24 25.79202 -80.28004 25 ft 2 kts 207°
2026-05-04 02:24 25.79221 -80.27993 22 ft 1 kts 207°
2026-05-04 02:24 25.79222 -80.27993 22 ft 0 kts 207°
2026-05-04 02:25 25.79221 -80.27993 22 ft 0 kts 207°
2026-05-04 02:28 25.79195 -80.28008 24 ft 9 kts 207°
2026-05-04 02:28 25.79132 -80.28044 21 ft 11 kts 206°
2026-05-04 02:28 25.79069 -80.28091 22 ft 11 kts 231°
2026-05-04 02:29 25.79066 -80.28174 23 ft 11 kts 296°
2026-05-04 02:29 25.79102 -80.28242 23 ft 12 kts 304°
2026-05-04 02:29 25.79151 -80.28328 21 ft 15 kts 299°
2026-05-04 02:29 25.79225 -80.28423 19 ft 17 kts 310°
2026-05-04 02:30 25.79287 -80.28539 18 ft 18 kts 297°
2026-05-04 02:30 25.79351 -80.28667 15 ft 20 kts 300°
2026-05-04 02:30 25.79421 -80.28803 15 ft 20 kts 299°
2026-05-04 02:30 25.79489 -80.28935 16 ft 20 kts 300°
2026-05-04 02:31 25.79557 -80.29068 17 ft 19 kts 300°
2026-05-04 02:31 25.79622 -80.29194 19 ft 19 kts 299°
2026-05-04 02:31 25.79687 -80.29322 18 ft 20 kts 299°
2026-05-04 02:31 25.79755 -80.29456 18 ft 20 kts 299°
2026-05-04 02:32 25.79826 -80.29597 15 ft 22 kts 300°
2026-05-04 02:32 25.79883 -80.29708 13 ft 13 kts 298°
2026-05-04 02:32 25.79921 -80.29798 13 ft 13 kts 294°
2026-05-04 02:32 25.79953 -80.29879 12 ft 11 kts 293°
2026-05-04 02:33 25.79971 -80.29938 11 ft 0 kts 285°
2026-05-04 02:34 25.79975 -80.29955 11 ft 6 kts 285°
2026-05-04 02:34 25.79995 -80.30030 13 ft 14 kts 285°
2026-05-04 02:35 25.80032 -80.30117 14 ft 10 kts 324°
2026-05-04 02:35 25.80075 -80.30089 14 ft 9 kts 78°
2026-05-04 02:35 25.80085 -80.29821 13 ft 76 kts 88°
2026-05-04 02:35 25.80122 -80.28932 24 ft 149 kts 87°
2026-05-04 02:36 25.80176 -80.27623 377 ft 178 kts 86°
2026-05-04 02:36 25.80246 -80.26258 1341 ft 179 kts 93°
2026-05-04 02:36 25.79895 -80.24891 1912 ft 190 kts 116°
2026-05-04 02:36 25.79289 -80.23496 2093 ft 212 kts 117°
2026-05-04 02:37 25.78594 -80.21956 2227 ft 236 kts 118°
2026-05-04 02:37 25.77813 -80.20242 2467 ft 260 kts 118°
2026-05-04 02:37 25.76987 -80.18421 3053 ft 268 kts 118°
2026-05-04 02:37 25.76120 -80.16569 3719 ft 273 kts 120°
2026-05-04 02:38 25.75207 -80.14712 4407 ft 276 kts 121°
2026-05-04 02:38 25.74377 -80.12771 5057 ft 283 kts 105°
2026-05-04 02:38 25.74350 -80.10582 5671 ft 291 kts 74°
2026-05-04 02:38 25.75330 -80.08625 6270 ft 294 kts 48°
2026-05-04 02:39 25.76690 -80.06907 6888 ft 298 kts 47°
2026-05-04 02:39 25.78075 -80.05179 7521 ft 301 kts 47°
2026-05-04 02:39 25.79472 -80.03427 8165 ft 305 kts 47°
2026-05-04 02:39 25.80881 -80.01649 8806 ft 308 kts 47°
2026-05-04 02:40 25.82299 -79.99854 9443 ft 311 kts 47°
2026-05-04 02:40 25.83734 -79.98037 10051 ft 315 kts 47°
2026-05-04 02:40 25.85194 -79.96187 10280 ft 334 kts 47°
2026-05-04 02:40 25.86775 -79.94182 10406 ft 355 kts 47°
2026-05-04 02:41 25.88446 -79.92063 10530 ft 374 kts 47°
2026-05-04 02:41 25.90201 -79.89831 10645 ft 393 kts 47°
2026-05-04 02:41 25.92041 -79.87487 10774 ft 410 kts 47°
2026-05-04 02:41 25.93937 -79.85074 11121 ft 418 kts 47°
2026-05-04 02:42 25.95859 -79.82626 11616 ft 423 kts 47°
2026-05-04 02:42 25.97798 -79.80151 12129 ft 427 kts 47°
2026-05-04 02:42 25.99753 -79.77651 12645 ft 431 kts 47°
2026-05-04 02:42 26.01733 -79.75121 13158 ft 435 kts 47°
2026-05-04 02:43 26.03732 -79.72567 13677 ft 439 kts 47°
2026-05-04 02:43 26.05747 -79.69991 14121 ft 443 kts 47°
2026-05-04 02:43 26.07779 -79.67395 14592 ft 447 kts 47°
2026-05-04 02:43 26.09832 -79.64772 15040 ft 451 kts 47°
2026-05-04 02:44 26.11749 -79.61988 15469 ft 456 kts 54°
2026-05-04 02:44 26.13558 -79.59127 15905 ft 459 kts 54°
2026-05-04 02:44 26.15405 -79.56206 16327 ft 463 kts 53°
2026-05-04 02:44 26.17268 -79.53266 16743 ft 466 kts 53°
2026-05-04 02:45 26.19147 -79.50302 17144 ft 471 kts 53°
2026-05-04 02:45 26.21052 -79.47299 17474 ft 476 kts 53°
2026-05-04 02:45 26.22970 -79.44276 17848 ft 480 kts 53°
2026-05-04 02:45 26.24902 -79.41231 18242 ft 483 kts 53°
2026-05-04 02:46 26.26860 -79.38178 18602 ft 485 kts 51°
2026-05-04 02:46 26.29104 -79.35368 18928 ft 485 kts 41°
2026-05-04 02:46 26.31694 -79.32956 19249 ft 485 kts 32°
2026-05-04 02:46 26.34482 -79.30935 19569 ft 485 kts 28°
2026-05-04 02:47 26.37344 -79.28909 19901 ft 488 kts 28°
2026-05-04 02:47 26.40227 -79.26863 20232 ft 490 kts 28°
2026-05-04 02:47 26.43111 -79.24810 20553 ft 493 kts 28°
2026-05-04 02:47 26.46004 -79.22743 20875 ft 495 kts 28°
2026-05-04 02:48 26.48919 -79.20660 21202 ft 499 kts 28°
2026-05-04 02:48 26.51851 -79.18564 21512 ft 501 kts 28°
2026-05-04 02:48 26.54796 -79.16459 21821 ft 504 kts 28°
2026-05-04 02:48 26.57759 -79.14340 22133 ft 507 kts 28°
2026-05-04 02:49 26.60737 -79.12209 22430 ft 509 kts 28°
2026-05-04 02:49 26.63731 -79.10069 22723 ft 512 kts 28°
2026-05-04 02:49 26.66735 -79.07919 23007 ft 514 kts 28°
2026-05-04 02:49 26.69759 -79.05753 23284 ft 517 kts 28°
2026-05-04 02:50 26.72790 -79.03582 23576 ft 519 kts 28°
2026-05-04 02:50 26.75844 -79.01392 23850 ft 521 kts 28°
2026-05-04 02:50 26.78900 -78.99197 24126 ft 523 kts 28°
2026-05-04 02:50 26.81974 -78.96991 24396 ft 525 kts 28°
2026-05-04 02:51 26.85051 -78.94778 24661 ft 527 kts 28°
2026-05-04 02:51 26.88140 -78.92555 24912 ft 529 kts 28°
2026-05-04 02:51 26.91238 -78.90324 25232 ft 529 kts 28°
2026-05-04 02:51 26.94329 -78.88093 25592 ft 528 kts 28°
2026-05-04 02:52 26.97415 -78.85862 25936 ft 528 kts 28°
2026-05-04 02:52 27.00502 -78.83634 26280 ft 527 kts 28°
2026-05-04 02:52 27.03584 -78.81409 26658 ft 527 kts 28°
2026-05-04 02:52 27.06683 -78.79171 26878 ft 531 kts 28°
2026-05-04 02:53 27.09796 -78.76925 27151 ft 532 kts 28°
2026-05-04 02:53 27.12916 -78.74674 27474 ft 533 kts 28°
2026-05-04 02:53 27.15993 -78.72450 27813 ft 533 kts 28°
2026-05-04 02:53 27.19116 -78.70186 28160 ft 533 kts 28°
2026-05-04 02:54 27.22227 -78.67925 28492 ft 532 kts 29°
2026-05-04 02:54 27.25365 -78.65757 28917 ft 526 kts 23°
2026-05-04 02:54 27.28678 -78.64083 29292 ft 519 kts 14°
2026-05-04 02:54 27.32121 -78.62981 29639 ft 511 kts
2026-05-04 02:55 27.39108 -78.61972 30287 ft 505 kts 360°
2026-05-04 02:55 27.42603 -78.61524 30567 ft 505 kts
2026-05-04 02:55 27.46093 -78.61067 30842 ft 505 kts
2026-05-04 02:56 27.49590 -78.60608 31113 ft 505 kts 360°
2026-05-04 02:56 27.53087 -78.60148 31381 ft 505 kts 360°
2026-05-04 02:56 27.56582 -78.59690 31654 ft 505 kts 360°
2026-05-04 02:56 27.60071 -78.59233 31971 ft 506 kts 359°
2026-05-04 02:57 27.63583 -78.58778 32114 ft 509 kts 359°
2026-05-04 02:57 27.67112 -78.58321 32288 ft 512 kts 359°
2026-05-04 02:57 27.70655 -78.57861 32523 ft 512 kts 359°
2026-05-04 02:57 27.74197 -78.57400 32778 ft 513 kts 359°
2026-05-04 02:58 27.77741 -78.56937 32993 ft 513 kts 359°
2026-05-04 02:58 27.84867 -78.56008 33073 ft 517 kts 359°
2026-05-04 02:59 27.92016 -78.55074 33070 ft 519 kts 358°
2026-05-04 02:59 27.99218 -78.54132 33075 ft 521 kts 358°
2026-05-04 03:00 28.06439 -78.53191 33080 ft 522 kts 358°
2026-05-04 03:00 28.13651 -78.52245 33085 ft 522 kts 358°
2026-05-04 03:01 28.20828 -78.51286 33086 ft 523 kts 357°
2026-05-04 03:01 28.28089 -78.50327 33074 ft 522 kts 357°
2026-05-04 03:02 28.35308 -78.49382 33084 ft 523 kts 357°
2026-05-04 03:02 28.42540 -78.48428 33097 ft 523 kts 357°
2026-05-04 03:03 28.49757 -78.47478 33097 ft 524 kts 356°
2026-05-04 03:03 28.56989 -78.46517 33098 ft 523 kts 356°
2026-05-04 03:04 28.64232 -78.45550 33102 ft 524 kts 356°
2026-05-04 03:04 28.71481 -78.44592 33111 ft 525 kts 356°
2026-05-04 03:05 28.77510 -78.43801 33119 ft 525 kts 356°
2026-05-04 03:05 28.84748 -78.42831 33098 ft 523 kts 356°
2026-05-04 03:06 28.92000 -78.41862 33115 ft 524 kts 356°
2026-05-04 03:06 28.99208 -78.40903 33126 ft 525 kts 356°
2026-05-04 03:07 29.06458 -78.39932 33118 ft 525 kts 356°
2026-05-04 03:07 29.13705 -78.38964 33109 ft 524 kts 356°
2026-05-04 03:08 29.20955 -78.37997 33119 ft 525 kts 356°
2026-05-04 03:08 29.28228 -78.37024 33127 ft 526 kts 356°
2026-05-04 03:09 29.35499 -78.36037 33167 ft 527 kts 356°
2026-05-04 03:09 29.42781 -78.35060 33155 ft 527 kts 356°
2026-05-04 03:09 29.46412 -78.34748 33156 ft 516 kts 349°
2026-05-04 03:10 29.49947 -78.34998 33151 ft 502 kts 340°
2026-05-04 03:10 29.53323 -78.35774 33151 ft 488 kts 332°
2026-05-04 03:10 29.56581 -78.36835 33151 ft 487 kts 332°
2026-05-04 03:11 29.63103 -78.38967 33131 ft 486 kts 332°
2026-05-04 03:11 29.69601 -78.41067 33126 ft 485 kts 332°
2026-05-04 03:12 29.76106 -78.43188 33135 ft 486 kts 332°
2026-05-04 03:12 29.82618 -78.45317 33303 ft 486 kts 332°
2026-05-04 03:12 29.85869 -78.46381 33590 ft 486 kts 332°
2026-05-04 03:13 29.89123 -78.47447 33858 ft 485 kts 331°
2026-05-04 03:13 29.92363 -78.48511 34209 ft 483 kts 332°
2026-05-04 03:13 29.95601 -78.49569 34479 ft 482 kts 331°
2026-05-04 03:13 29.98779 -78.50607 34714 ft 481 kts 331°
2026-05-04 03:14 30.01997 -78.51660 34939 ft 480 kts 331°
2026-05-04 03:14 30.05211 -78.52713 35102 ft 480 kts 331°
2026-05-04 03:14 30.08424 -78.53767 35149 ft 480 kts 331°
2026-05-04 03:15 30.15022 -78.55429 35155 ft 501 kts 344°
2026-05-04 03:15 30.18568 -78.55397 35155 ft 519 kts 355°
2026-05-04 03:15 30.22174 -78.54898 35153 ft 522 kts 356°
2026-05-04 03:16 30.29398 -78.53852 35161 ft 523 kts 356°
2026-05-04 03:16 30.36626 -78.52802 35161 ft 523 kts 356°
2026-05-04 03:17 30.43800 -78.51766 35165 ft 523 kts 356°
2026-05-04 03:17 30.51024 -78.50637 35198 ft 524 kts 358°
2026-05-04 03:18 30.58243 -78.49427 35191 ft 523 kts 358°
2026-05-04 03:18 30.65447 -78.48225 35190 ft 523 kts 358°
2026-05-04 03:19 30.72644 -78.47054 35190 ft 522 kts 357°
2026-05-04 03:19 30.79795 -78.45899 35144 ft 514 kts 358°
2026-05-04 03:20 30.86829 -78.44765 35146 ft 513 kts 358°
2026-05-04 03:20 30.93911 -78.43611 35165 ft 515 kts 358°
2026-05-04 03:21 31.01024 -78.42445 35216 ft 515 kts 358°
2026-05-04 03:21 31.08127 -78.41273 35203 ft 515 kts 358°
2026-05-04 03:22 31.15169 -78.40119 35197 ft 514 kts 358°
2026-05-04 03:22 31.22253 -78.38956 35198 ft 513 kts 358°
2026-05-04 03:23 31.29329 -78.37801 35202 ft 512 kts 358°
2026-05-04 03:23 31.36359 -78.36646 35183 ft 509 kts 358°
2026-05-04 03:24 31.43382 -78.35489 35181 ft 510 kts 358°
2026-05-04 03:24 31.50416 -78.34335 35187 ft 510 kts 358°
2026-05-04 03:25 31.57395 -78.33175 35171 ft 508 kts 359°
2026-05-04 03:25 31.64371 -78.32004 35167 ft 506 kts 359°
2026-05-04 03:26 31.71353 -78.30850 35176 ft 507 kts 359°
2026-05-04 03:26 31.78333 -78.29699 35182 ft 507 kts 359°
2026-05-04 03:27 31.85324 -78.28542 35208 ft 507 kts 359°
2026-05-04 03:27 31.92317 -78.27377 35204 ft 508 kts 359°
2026-05-04 03:28 31.99310 -78.26202 35204 ft 508 kts 359°
2026-05-04 03:28 32.06302 -78.25048 35202 ft 507 kts 358°
2026-05-04 03:29 32.13272 -78.24035 35172 ft 502 kts 358°
2026-05-04 03:29 32.20215 -78.23082 35176 ft 503 kts 358°
2026-05-04 03:30 32.27182 -78.22091 35187 ft 504 kts 358°
2026-05-04 03:30 32.34149 -78.21055 35225 ft 505 kts 358°
2026-05-04 03:31 32.41130 -78.20021 35212 ft 505 kts 358°
2026-05-04 03:31 32.48101 -78.18996 35205 ft 505 kts 358°
2026-05-04 03:32 32.55082 -78.17976 35204 ft 505 kts 358°
2026-05-04 03:32 32.62054 -78.16947 35195 ft 504 kts 358°
2026-05-04 03:33 32.68991 -78.15913 35175 ft 502 kts 358°
2026-05-04 03:33 32.75934 -78.14893 35183 ft 503 kts 358°
2026-05-04 03:34 32.82884 -78.13875 35188 ft 503 kts 358°
2026-05-04 03:34 32.89836 -78.12839 35188 ft 504 kts 358°
2026-05-04 03:35 32.96787 -78.11808 35194 ft 504 kts 358°
2026-05-04 03:35 33.03752 -78.10770 35193 ft 504 kts 358°
2026-05-04 03:36 33.10711 -78.09730 35196 ft 504 kts 358°
2026-05-04 03:36 33.17656 -78.08689 35179 ft 502 kts 358°
2026-05-04 03:37 33.24585 -78.07655 35178 ft 502 kts 358°
2026-05-04 03:37 33.31484 -78.06627 35184 ft 503 kts 358°
2026-05-04 03:38 33.38435 -78.05583 35207 ft 503 kts 358°
2026-05-04 03:38 33.45397 -78.04537 35193 ft 503 kts 358°
2026-05-04 03:39 33.52358 -78.03492 35193 ft 503 kts 358°
2026-05-04 03:39 33.59312 -78.02451 35191 ft 504 kts 358°
2026-05-04 03:40 33.66268 -78.01396 35166 ft 502 kts 359°
2026-05-04 03:40 33.73167 -78.00339 35162 ft 500 kts 359°
2026-05-04 03:41 33.80075 -77.99301 35172 ft 500 kts 358°
2026-05-04 03:41 33.86992 -77.98270 35179 ft 499 kts 357°
2026-05-04 03:42 33.93816 -77.97943 35203 ft 494 kts 353°
2026-05-04 03:42 34.00728 -77.97693 35195 ft 493 kts 353°
2026-05-04 03:43 34.07543 -77.97445 35192 ft 493 kts 353°
2026-05-04 03:43 34.14420 -77.97195 35227 ft 493 kts 353°
2026-05-04 03:44 34.21240 -77.96950 35165 ft 489 kts 353°
2026-05-04 03:44 34.28042 -77.96709 35170 ft 489 kts 353°
2026-05-04 03:45 34.34844 -77.96463 35171 ft 490 kts 353°
2026-05-04 03:45 34.41670 -77.96214 35196 ft 491 kts 353°
2026-05-04 03:46 34.48500 -77.95965 35176 ft 491 kts 353°
2026-05-04 03:46 34.55338 -77.95713 35172 ft 490 kts 353°
2026-05-04 03:47 34.62137 -77.95470 35156 ft 491 kts 353°
2026-05-04 03:47 34.68961 -77.95217 35140 ft 489 kts 353°
2026-05-04 03:48 34.75724 -77.94965 35154 ft 488 kts 353°
2026-05-04 03:48 34.82514 -77.94720 35147 ft 487 kts 353°
2026-05-04 03:49 34.88152 -77.94517 35166 ft 488 kts 353°
2026-05-04 03:49 34.94944 -77.94260 35187 ft 488 kts 353°
2026-05-04 03:50 35.02831 -77.93970 35192 ft 488 kts 353°
2026-05-04 03:50 35.08516 -77.93761 35190 ft 487 kts 353°
2026-05-04 03:51 35.15293 -77.93517 35211 ft 487 kts 354°
2026-05-04 03:51 35.22011 -77.93268 35163 ft 485 kts 353°
2026-05-04 03:52 35.28763 -77.93012 35162 ft 485 kts 353°
2026-05-04 03:52 35.35451 -77.93207 35158 ft 478 kts 347°
2026-05-04 03:53 35.42094 -77.93763 35164 ft 478 kts 347°
2026-05-04 03:53 35.48736 -77.94317 35164 ft 478 kts 348°
2026-05-04 03:54 35.55378 -77.94865 35162 ft 478 kts 348°
2026-05-04 03:54 35.62023 -77.95413 35161 ft 478 kts 348°
2026-05-04 03:55 35.68645 -77.95963 35126 ft 472 kts 348°
2026-05-04 03:55 35.75197 -77.96509 35136 ft 472 kts 348°
2026-05-04 03:56 35.81759 -77.97055 35138 ft 472 kts 348°
2026-05-04 03:56 35.88273 -77.97603 35132 ft 472 kts 348°
2026-05-04 03:57 35.94813 -77.98145 35128 ft 470 kts 348°
2026-05-04 03:57 36.01335 -77.98698 35135 ft 470 kts 348°
2026-05-04 03:58 36.11135 -77.99517 35143 ft 470 kts 348°
2026-05-04 03:58 36.17661 -78.00070 35139 ft 470 kts 348°
2026-05-04 03:59 36.24187 -78.00625 35128 ft 470 kts 348°
2026-05-04 03:59 36.30711 -78.01177 35127 ft 470 kts 348°
2026-05-04 04:00 36.37266 -78.01588 35127 ft 477 kts 355°
2026-05-04 04:00 36.40593 -78.01101 35161 ft 488 kts
2026-05-04 04:00 36.43928 -78.00226 35154 ft 489 kts
2026-05-04 04:01 36.50584 -77.98461 35146 ft 489 kts
2026-05-04 04:01 36.57235 -77.96714 35186 ft 488 kts
2026-05-04 04:02 36.63889 -77.94977 35211 ft 489 kts
2026-05-04 04:02 36.70530 -77.93226 35167 ft 487 kts
2026-05-04 04:03 36.77121 -77.91497 35158 ft 487 kts
2026-05-04 04:03 36.83754 -77.89760 35148 ft 487 kts
2026-05-04 04:04 36.90393 -77.88012 35124 ft 487 kts
2026-05-04 04:04 36.97028 -77.86257 35115 ft 487 kts
2026-05-04 04:05 37.03664 -77.84496 35112 ft 488 kts
2026-05-04 04:05 37.10304 -77.82727 35138 ft 488 kts
2026-05-04 04:06 37.16926 -77.80960 35105 ft 485 kts
2026-05-04 04:06 37.23541 -77.79200 35117 ft 486 kts
2026-05-04 04:07 37.30167 -77.77432 35117 ft 487 kts
2026-05-04 04:07 37.36796 -77.75656 35134 ft 487 kts
2026-05-04 04:08 37.43433 -77.73881 35127 ft 487 kts
2026-05-04 04:08 37.50056 -77.72032 35118 ft 492 kts
2026-05-04 04:09 37.53295 -77.70504 35107 ft 503 kts 18°
2026-05-04 04:09 37.56367 -77.68303 35133 ft 513 kts 26°
2026-05-04 04:09 37.62376 -77.63427 35123 ft 514 kts 26°
2026-05-04 04:10 37.68400 -77.58531 35122 ft 515 kts 26°
2026-05-04 04:10 37.74396 -77.53665 35119 ft 515 kts 25°
2026-05-04 04:11 37.80430 -77.48758 35117 ft 515 kts 26°
2026-05-04 04:11 37.86459 -77.43845 35115 ft 516 kts 26°
2026-05-04 04:12 37.92503 -77.38926 35116 ft 516 kts 25°
2026-05-04 04:12 37.98539 -77.34003 35121 ft 516 kts 26°
2026-05-04 04:13 38.04574 -77.29074 35085 ft 516 kts 26°
2026-05-04 04:13 38.10574 -77.24161 35082 ft 517 kts 26°
2026-05-04 04:14 38.16608 -77.19203 35077 ft 517 kts 25°
2026-05-04 04:14 38.22660 -77.14226 35112 ft 518 kts 25°
2026-05-04 04:15 38.28712 -77.09243 35110 ft 519 kts 26°
2026-05-04 04:15 38.34647 -77.03932 35105 ft 524 kts 30°
2026-05-04 04:16 38.40406 -76.98217 35135 ft 525 kts 32°
2026-05-04 04:16 38.46147 -76.92472 35101 ft 521 kts 31°
2026-05-04 04:17 38.51868 -76.86919 35095 ft 518 kts 30°
2026-05-04 04:17 38.57626 -76.81401 35097 ft 517 kts 30°
2026-05-04 04:18 38.63371 -76.75870 35084 ft 514 kts 30°
2026-05-04 04:18 38.69061 -76.70337 35067 ft 513 kts 30°
2026-05-04 04:19 38.74741 -76.64785 35077 ft 514 kts 30°
2026-05-04 04:19 38.80433 -76.59221 35122 ft 514 kts 30°
2026-05-04 04:20 38.86096 -76.53692 35113 ft 514 kts 30°
2026-05-04 04:20 38.91790 -76.48112 35093 ft 514 kts 30°
2026-05-04 04:21 38.97473 -76.42525 34758 ft 517 kts 30°
2026-05-04 04:21 39.00334 -76.39711 34122 ft 519 kts 30°
2026-05-04 04:21 39.03190 -76.36876 33450 ft 520 kts 32°
2026-05-04 04:22 39.05984 -76.33908 32735 ft 522 kts 34°
2026-05-04 04:22 39.08703 -76.30801 32019 ft 523 kts 36°
2026-05-04 04:22 39.11361 -76.27607 31327 ft 522 kts 37°
2026-05-04 04:22 39.13994 -76.24380 30648 ft 520 kts 37°
2026-05-04 04:23 39.16616 -76.21181 29958 ft 518 kts 37°
2026-05-04 04:23 39.19239 -76.18029 29088 ft 511 kts 36°
2026-05-04 04:23 39.21845 -76.14951 28304 ft 505 kts 36°
2026-05-04 04:23 39.24451 -76.11916 27551 ft 503 kts 36°
2026-05-04 04:24 39.27044 -76.08907 26930 ft 498 kts 36°
2026-05-04 04:24 39.29596 -76.05945 26553 ft 489 kts 36°
2026-05-04 04:24 39.32103 -76.03024 26117 ft 482 kts 36°
2026-05-04 04:24 39.34573 -76.00130 25710 ft 477 kts 36°
2026-05-04 04:25 39.37018 -75.97251 25295 ft 473 kts 37°
2026-05-04 04:25 39.39439 -75.94391 24881 ft 469 kts 37°
2026-05-04 04:25 39.41838 -75.91551 24471 ft 465 kts 37°
2026-05-04 04:25 39.44220 -75.88739 24071 ft 462 kts 37°
2026-05-04 04:26 39.46580 -75.85951 23673 ft 458 kts 37°
2026-05-04 04:26 39.48931 -75.83172 23233 ft 455 kts 37°
2026-05-04 04:26 39.51260 -75.80415 22847 ft 452 kts 37°
2026-05-04 04:26 39.53568 -75.77678 22454 ft 449 kts 37°
2026-05-04 04:27 39.55867 -75.74947 22068 ft 446 kts 37°
2026-05-04 04:27 39.58142 -75.72233 21682 ft 443 kts 37°
2026-05-04 04:27 39.60401 -75.69540 21303 ft 439 kts 37°
2026-05-04 04:27 39.62614 -75.66904 20925 ft 436 kts 37°
2026-05-04 04:28 39.64839 -75.64252 20535 ft 432 kts 37°
2026-05-04 04:28 39.67041 -75.61621 20176 ft 429 kts 37°
2026-05-04 04:28 39.69230 -75.59005 19762 ft 426 kts 38°
2026-05-04 04:28 39.71397 -75.56412 19331 ft 422 kts 38°
2026-05-04 04:29 39.73542 -75.53836 18905 ft 418 kts 38°
2026-05-04 04:29 39.75674 -75.51268 18476 ft 415 kts 38°
2026-05-04 04:29 39.77777 -75.48727 18025 ft 411 kts 38°
2026-05-04 04:29 39.79865 -75.46201 17602 ft 408 kts 38°
2026-05-04 04:30 39.81940 -75.43691 17199 ft 405 kts 39°
2026-05-04 04:30 39.83996 -75.41201 16790 ft 402 kts 39°
2026-05-04 04:30 39.86037 -75.38726 16383 ft 399 kts 39°
2026-05-04 04:30 39.88062 -75.36271 15978 ft 396 kts 39°
2026-05-04 04:31 39.90073 -75.33834 15578 ft 394 kts 39°
2026-05-04 04:31 39.92046 -75.31444 15183 ft 391 kts 39°
2026-05-04 04:31 39.94057 -75.29007 14783 ft 388 kts 39°
2026-05-04 04:31 39.96002 -75.26648 14393 ft 386 kts 39°
2026-05-04 04:32 39.97953 -75.24275 14093 ft 378 kts 40°
2026-05-04 04:32 39.99844 -75.21968 13707 ft 371 kts 40°
2026-05-04 04:32 40.01719 -75.19676 13209 ft 367 kts 40°
2026-05-04 04:32 40.02977 -75.18138 12966 ft 367 kts 40°
2026-05-04 04:33 40.04837 -75.15868 12598 ft 365 kts 40°
2026-05-04 04:33 40.06685 -75.13616 12221 ft 362 kts 40°
2026-05-04 04:33 40.08520 -75.11379 11862 ft 359 kts 40°
2026-05-04 04:33 40.10340 -75.09156 11501 ft 356 kts 40°
2026-05-04 04:34 40.12139 -75.06951 11141 ft 353 kts 40°
2026-05-04 04:34 40.13921 -75.04765 10807 ft 348 kts 40°
2026-05-04 04:34 40.15647 -75.02644 10692 ft 333 kts 39°
2026-05-04 04:34 40.17302 -75.00609 10555 ft 320 kts 39°
2026-05-04 04:35 40.18892 -74.98653 10412 ft 308 kts 39°
2026-05-04 04:35 40.20429 -74.96769 10272 ft 297 kts 39°
2026-05-04 04:35 40.21924 -74.94934 10006 ft 292 kts 39°
2026-05-04 04:35 40.23399 -74.93123 9662 ft 290 kts 39°
2026-05-04 04:36 40.24868 -74.91320 9284 ft 288 kts 39°
2026-05-04 04:36 40.26305 -74.89492 8898 ft 288 kts 41°
2026-05-04 04:36 40.27694 -74.87591 8521 ft 288 kts 43°
2026-05-04 04:36 40.29032 -74.85697 8156 ft 287 kts 43°
2026-05-04 04:37 40.33071 -74.79926 7902 ft 286 kts 43°
2026-05-04 04:37 40.34426 -74.78015 7549 ft 285 kts 43°
2026-05-04 04:38 40.35777 -74.76113 7187 ft 285 kts 43°
2026-05-04 04:38 40.37122 -74.74215 6829 ft 284 kts 43°
2026-05-04 04:38 40.38464 -74.72321 6479 ft 283 kts 43°
2026-05-04 04:38 40.39805 -74.70428 6117 ft 282 kts 43°
2026-05-04 04:39 40.41167 -74.68581 5731 ft 279 kts 36°
2026-05-04 04:39 40.42723 -74.67111 5370 ft 275 kts 28°
2026-05-04 04:39 40.44326 -74.65756 4992 ft 273 kts 28°
2026-05-04 04:39 40.45926 -74.64414 4644 ft 273 kts 28°
2026-05-04 04:40 40.47523 -74.63074 4282 ft 272 kts 28°
2026-05-04 04:40 40.49110 -74.61744 4013 ft 269 kts 28°
2026-05-04 04:40 40.50698 -74.60413 3999 ft 272 kts 28°
2026-05-04 04:40 40.52294 -74.59078 4000 ft 273 kts 28°
2026-05-04 04:41 40.53894 -74.57733 4003 ft 273 kts 28°
2026-05-04 04:41 40.55492 -74.56387 4000 ft 273 kts 27°
2026-05-04 04:41 40.57094 -74.55039 4000 ft 273 kts 27°
2026-05-04 04:41 40.58692 -74.53695 4000 ft 273 kts 27°
2026-05-04 04:42 40.60298 -74.52346 3998 ft 273 kts 27°
2026-05-04 04:42 40.61897 -74.50998 3999 ft 273 kts 27°
2026-05-04 04:42 40.63496 -74.49643 4000 ft 273 kts 28°
2026-05-04 04:42 40.65094 -74.48292 4001 ft 273 kts 27°
2026-05-04 04:43 40.66691 -74.46941 4000 ft 273 kts 27°
2026-05-04 04:43 40.68291 -74.45594 4001 ft 273 kts 27°
2026-05-04 04:43 40.69895 -74.44246 4016 ft 273 kts 27°
2026-05-04 04:43 40.71496 -74.42898 4032 ft 273 kts 27°
2026-05-04 04:44 40.73100 -74.41539 4022 ft 274 kts 27°
2026-05-04 04:44 40.74700 -74.40174 4015 ft 274 kts 27°
2026-05-04 04:44 40.76304 -74.38804 4009 ft 274 kts 27°
2026-05-04 04:44 40.77905 -74.37440 4009 ft 274 kts 27°
2026-05-04 04:45 40.79506 -74.36071 4010 ft 274 kts 27°
2026-05-04 04:45 40.81086 -74.34725 4005 ft 273 kts 27°
2026-05-04 04:45 40.82689 -74.33368 3999 ft 274 kts 27°
2026-05-04 04:47 40.88250 -74.23639 3178 ft 242 kts 114°
2026-05-04 04:47 40.87565 -74.21609 2780 ft 242 kts 117°
2026-05-04 04:47 40.86860 -74.19599 2520 ft 240 kts 117°
2026-05-04 04:47 40.86094 -74.17647 2489 ft 238 kts 130°
2026-05-04 04:48 40.85080 -74.15924 2497 ft 238 kts 132°
2026-05-04 04:49 40.80355 -74.10614 2194 ft 196 kts 178°
2026-05-04 04:49 40.79094 -74.10560 2018 ft 164 kts 195°
2026-05-04 04:49 40.78068 -74.10876 1819 ft 142 kts 209°
2026-05-04 04:49 40.77196 -74.11412 1650 ft 137 kts 213°
2026-05-04 04:50 40.76339 -74.11956 1465 ft 136 kts 212°
2026-05-04 04:50 40.75488 -74.12497 1298 ft 135 kts 211°
2026-05-04 04:50 40.74644 -74.13039 1123 ft 135 kts 211°
2026-05-04 04:50 40.73793 -74.13579 943 ft 136 kts 211°
2026-05-04 04:51 40.72943 -74.14126 742 ft 135 kts 208°
2026-05-04 04:51 40.72085 -74.14666 547 ft 136 kts 207°
2026-05-04 04:51 40.71230 -74.15205 359 ft 137 kts 208°
2026-05-04 04:51 40.70393 -74.15741 175 ft 135 kts 207°
2026-05-04 04:52 40.69558 -74.16296 31 ft 129 kts 204°
2026-05-04 04:52 40.68833 -74.16749 22 ft 103 kts 205°
2026-05-04 04:52 40.68343 -74.17059 22 ft 53 kts 206°
2026-05-04 04:52 40.68131 -74.17189 22 ft 27 kts 204°
2026-05-04 04:53 40.67986 -74.17331 23 ft 26 kts 237°
2026-05-04 04:53 40.67955 -74.17474 21 ft 9 kts 266°
2026-05-04 04:53 40.67955 -74.17494 21 ft 0 kts 268°
2026-05-04 04:53 40.67955 -74.17498 21 ft 3 kts 269°
2026-05-04 04:54 40.67964 -74.17569 21 ft 9 kts 288°
2026-05-04 04:54 40.67996 -74.17665 21 ft 16 kts 295°
2026-05-04 04:54 40.68044 -74.17798 22 ft 13 kts 296°
2026-05-04 04:54 40.68086 -74.17871 22 ft 8 kts 333°